TANSTAAFL-002

operational
NORAD ID: 62378 Int'l Des: 2024-247 Owner: TANOM Country: US
LEOCIRCULAR

About TANSTAAFL-002

Description loading...

Live Position

Loading 3D Globe...

Upcoming Passes

Altitude History

Altitude vs Time

uPlot chart will show altitude changes over time

Two-Line Element Set

1 62378U 24247B 25340.48750580 .00014769 00000-0 57535-3 0 9991
2 62378 44.9855 265.4294 0000838 339.8121 20.2728 15.25910058 53488
Epoch: Dec 6, 2025 • Age: 19 hours

Current Status

Altitude 488.9 km
Velocity 7.62 km/s
Sub-Earth Point -8.57°S, 78.73°E
Launch Date Dec 21, 2024
Age 0.9 years
Type other

Technical Details

Classification Payload
Mass 275.00 kg
Dry Mass 275.00 kg
Total Mass 275.00 kg
Length 0.70 m
Diameter 0.60 m
Span 4.50 m
Shape Box + 2 pan
Manufacturer TANOM
Bus Type Jackal
Phase Status In Orbit
Owner/State TANOM/US

Large Constellations

Loading constellations...